Preview of NWS' New Version of Forecast
This preview is not operational and should not be used for support decisions.

Regional Weather Roundup (RWR)

Issued by National Weather Service (NWS)

                            
000
ASUS44 KMEG 170210
RWRTN 
TENNESSEE HOURLY STATE WEATHER ROUNDUP
NATIONAL WEATHER SERVICE MEMPHIS TN
900 PM CDT SUN JUN 16 2019

TNZ002-004-019-021-049-052-054-088>092-170300-
WEST TENNESSEE
  
CITY           SKY/WX    TMP DP  RH WIND       PRES   REMARKS
MEMPHIS INTL   MOCLDY    78  71  79 S8        29.91R                  
NWS MEMPHIS      N/A     79 N/A N/A MISG        N/A                   
JACKSON        FAIR      77  69  76 S7        29.92R                  
DYERSBURG      FAIR      73  71  93 CALM      29.89R                  
SOMERVILLE     CLEAR     77  70  78 SE6       29.91R                  
COVINGTON      CLEAR     79  70  73 S7        29.89R                  
UNION CITY     PTCLDY    72  72 100 CALM      29.88R                  
BOLIVAR        CLEAR     75  70  83 CALM      29.93R                  
PARIS          MOCLDY    72  70  94 CALM      29.91R                  
HUNTINGDON     PTCLDY    77  70  78 S5        29.91R                  
LEXINGTON      CLEAR     75  68  78 CALM      29.93R                  
SELMER         CLEAR     75  70  83 CALM      29.93R                  
SAVANNAH       PTCLDY    73  72  94 CALM      29.93R                  
$$

TNZ008-025-027-028-033-062-065-066-170300-
NORTH MIDDLE TENNESSEE
  
CITY           SKY/WX    TMP DP  RH WIND       PRES   REMARKS
NASHVILLE      MOCLDY    82  61  48 SW6       29.94R                  
DICKSON        PTCLDY    75  66  73 SW5       29.94R                  
PORTLAND       CLEAR     82  66  57 SW9G15    29.93R                  
CLARKSVILLE    FAIR      81  66  60 SW9       29.91R                  
LEBANON        CLEAR     82  68  61 SW6G12    29.91R                  
SMYRNA         FAIR      81  65  58 SW7       29.96R                  
MURFREESBORO   CLEAR     82  63  51 SW8       29.93R                  
COOKEVILLE     CLEAR     79  68  69 S5        29.96R                  
LIVINGSTON     CLEAR     79  68  69 SW6       29.96R                  
CROSSVILLE     FAIR      72  68  87 VRB3      30.03R                  
ROCKWOOD       CLEAR     72  68  88 SW7       30.01R                  
$$

TNZ061-075-076-078-094-096-097-170300-
SOUTH MIDDLE TENNESSEE
  
CITY           SKY/WX    TMP DP  RH WIND       PRES   REMARKS
LAWRENCEBURG   PTCLDY    70  70 100 CALM      29.96R                  
LEWISBURG      CLEAR     73  64  73 CALM      29.95R                  
FAYETTEVILLE   CLEAR     81  70  69 CALM      29.97R                  
TULLAHOMA      MOCLDY    79  70  73 W3        29.98R                  
WINCHESTER     PTCLDY    79  70  73 S5        29.98R                  
MCMINNVILLE    PTCLDY    81  70  69 SW6       29.97R                  
COLUMBIA       CLEAR     73  72  94 SE3       29.93R                  
SHELBYVILLE    PTCLDY    79  64  61 SW3       29.96R                  
$$

TNZ017-018-042-046-047-170300-
NORTHEAST TENNESSEE
  
CITY           SKY/WX    TMP DP  RH WIND       PRES   REMARKS
TRI CITIES     FAIR      74  65  73 CALM      29.99R                  
ELIZABETHTON   FAIR      70  66  88 CALM      30.00R                  
GREENEVILLE    PTCLDY    77  64  65 CALM      30.00R                  
$$

TNZ012-013-036-069-073-074-170300-
CENTRAL EAST TENNESSEE
  
CITY           SKY/WX    TMP DP  RH WIND       PRES   REMARKS
KNOXVILLE      FAIR      79  66  64 SW12      29.95R                  
OAK RIDGE      FAIR      81  67  62 W3        29.98R                  
DOWNTOWN KNOXV CLEAR     81  68  65 W5        29.96R                  
GATLINBURG     CLEAR     79  66  65 CALM      29.96R                  
MORRISTOWN     PTCLDY    81  68  65 SW6       29.97R                  
JACKSBORO      CLEAR     79  66  65 SW6       30.00R                  
$$

TNZ083-085-099-170300-
SOUTHEAST TENNESSEE
  
CITY           SKY/WX    TMP DP  RH WIND       PRES   REMARKS
CHATTANOOGA    MOCLDY    82  70  66 S8        29.98R                  
$$

SKY/WX REPORTED AS FAIR MEANS FEW OR NO CLOUDS BELOW
12 THOUSAND FEET.